FENGYUN 3D

Last updated on Fri Sep 11 2026 00:02:39 GMT+0000 (Coordinated Universal Time)

1 43010U 17072A 26253.63282546 .00000254 00000+0 14170-3 0 9995 2 43010 99.0225 229.6395 0001867 131.2162 228.9175 14.19754749457114
UTC large
Height (km)
Speed (km/s)
/
Latitude / Longitude
Inclination (degrees)
Orbital Period (minutes)
Azimuth
Elevation
Range (km)
Doppler Factor

Next 0 passes for location: London (51.5072 / 0.1276)

No passes found over London.
FENGYUN 3D